This is the latest recevied weather packets stored in our database for station/object F6DEV-13. If no packets are shown the sender has not sent any weather packets the latest 1 day(s).
| Time | Temp. | Humidity | Pressure | Rain* | Wind** | Luminosity | Snow |
|---|---|---|---|---|---|---|---|
| 1777970000 | 13.89° C | 71% | 1010 hPa | 0 mm | 0 m/s | - | - |
| 1777969671 | 13.33° C | 71% | 1010 hPa | 0 mm | 0 m/s | - | - |
| 1777969341 | 13.89° C | 72% | 1010 hPa | 0 mm | 0 m/s | - | - |
| 1777969041 | 13.89° C | 73% | 1010 hPa | 0 mm | 0 m/s | - | - |
| 1777968740 | 13.33° C | 73% | 1010 hPa | 0 mm | 0 m/s | - | - |
| 1777968440 | 13.33° C | 73% | 1010 hPa | 0 mm | 0 m/s | - | - |
| 1777968171 | 13.33° C | 72% | 1010 hPa | 0 mm | 0 m/s | - | - |
| 1777968140 | 13.33° C | 72% | 1010 hPa | 0 mm | 0 m/s | - | - |
| 1777967840 | 13.33° C | 72% | 1010 hPa | 0 mm | 0 m/s | - | - |
| 1777967540 | 13.33° C | 73% | 1010 hPa | 0 mm | 0 m/s | - | - |
| 1777967240 | 13.33° C | 72% | 1010 hPa | 0 mm | 0 m/s | - | - |
| 1777966940 | 13.89° C | 75% | 1010 hPa | 0 mm | 0 m/s | - | - |
| 1777966640 | 13.89° C | 80% | 1011 hPa | 0 mm | 0 m/s | - | - |
| 1777966340 | 12.78° C | 80% | 1011 hPa | 0 mm | 0 m/s | - | - |
| 1777966040 | 12.78° C | 80% | 1011 hPa | 0 mm | 0 m/s | - | - |
| 1777965740 | 12.22° C | 79% | 1010 hPa | 0 mm | 0 m/s | - | - |
| 1777965440 | 12.78° C | 83% | 1010 hPa | 0 mm | 0 m/s | - | - |
| 1777965140 | 12.78° C | 87% | 1010 hPa | 0 mm | 0 m/s | - | - |
| 1777964840 | 12.78° C | 90% | 1010 hPa | 0 mm | 0 m/s | - | - |
| 1777964540 | 12.22° C | 91% | 1010 hPa | 0 mm | 0 m/s | - | - |
| 1777964239 | 12.22° C | 92% | 1010 hPa | 0 mm | 0 m/s | - | - |
| 1777963939 | 12.22° C | 93% | 1011 hPa | 0 mm | 0 m/s | - | - |
| 1777963639 | 12.22° C | 93% | 1011 hPa | 0 mm | 0 m/s | - | - |
| 1777963378 | 11.67° C | 93% | 1011 hPa | 0 mm | 0 m/s | - | - |
| 1777963339 | 11.67° C | 93% | 1011 hPa | 0 mm | 0 m/s | - | - |
* Rain latest hour (hover to see other rain measurements)
** Current wind speed in m/s (hover to see current wind gust speed)